CommID,deviceName,DataDateTime,GPSLatitude,GPSLongitude,Submerged,gpsQuality,BatteryVoltage,SST,IridiumLatitude,IridiumLongitude,IridiumRadiusKm,orgName,bPressTend,windDir,windSpeed,bPress,SurfaceSalinity,temperature7m,salinity7m,temperature15m,salinity15m
300234011880350,SFOS-MS-0008,10/9/2012 1:00:05 PM,70.830486,-158.035086,False,3,5.0,-5.00,70.490970,-157.585480,3,School of Fisheries and Ocean Sciences,,,,,,,,,
300234011880350,SFOS-MS-0008,10/9/2012 12:00:10 PM,70.830428,-158.035022,False,3,8.5,0.10,70.490970,-157.585480,2,School of Fisheries and Ocean Sciences,,,,,,,,,
300234011880350,SFOS-MS-0008,10/9/2012 11:30:09 AM,70.830519,-158.035189,False,3,8.5,0.30,70.472130,-158.998000,3,School of Fisheries and Ocean Sciences,,,,,,,,,
300234011880350,SFOS-MS-0008,10/9/2012 11:00:08 AM,70.830500,-158.035278,False,3,8.5,-0.30,70.479720,-158.705900,3,School of Fisheries and Ocean Sciences,,,,,,,,,
300234011880350,SFOS-MS-0008,10/9/2012 10:30:08 AM,70.830447,-158.035214,False,3,8.5,-0.10,70.479720,-158.705900,6,School of Fisheries and Ocean Sciences,,,,,,,,,
300234011880350,SFOS-MS-0008,10/9/2012 10:00:22 AM,70.830494,-158.035236,False,3,8.5,-0.25,70.505640,-158.461900,4,School of Fisheries and Ocean Sciences,,,,,,,,,
300234011880350,SFOS-MS-0008,10/9/2012 9:30:20 AM,70.830547,-158.035039,False,3,8.5,-0.20,70.505640,-158.461900,4,School of Fisheries and Ocean Sciences,,,,,,,,,
300234011880350,SFOS-MS-0008,10/9/2012 9:00:08 AM,70.830453,-158.035300,False,3,8.5,-0.05,70.498580,-158.461900,2,School of Fisheries and Ocean Sciences,,,,,,,,,
300234011880350,SFOS-MS-0008,10/9/2012 8:30:22 AM,70.830516,-158.035222,False,3,8.5,-0.20,70.479720,-158.705900,2,School of Fisheries and Ocean Sciences,,,,,,,,,
300234011880350,SFOS-MS-0008,10/9/2012 8:00:09 AM,70.830558,-158.035956,False,3,8.5,-0.15,70.472130,-158.998000,7,School of Fisheries and Ocean Sciences,,,,,,,,,
300234011880350,SFOS-MS-0008,10/9/2012 7:30:08 AM,70.830503,-158.035414,True,3,8.5,0.00,71.296350,-165.578250,317,School of Fisheries and Ocean Sciences,,,,,,,,,
300234011880350,SFOS-MS-0008,10/9/2012 7:00:08 AM,70.830514,-158.035350,True,3,8.5,0.15,70.494800,-158.192090,1708,School of Fisheries and Ocean Sciences,,,,,,,,,
300234011880350,SFOS-MS-0008,10/9/2012 6:30:22 AM,70.830547,-158.035378,True,3,8.5,0.05,70.524480,-158.216900,7,School of Fisheries and Ocean Sciences,,,,,,,,,
300234011880350,SFOS-MS-0008,10/9/2012 6:00:22 AM,70.831166,-158.046425,True,3,8.5,0.90,70.472130,-158.998000,5,School of Fisheries and Ocean Sciences,,,,,,,,,
300234011880350,SFOS-MS-0008,10/9/2012 5:30:22 AM,70.830728,-158.064544,True,3,8.5,1.85,71.339390,-166.572610,338,School of Fisheries and Ocean Sciences,,,,,,,,,
300234011880350,SFOS-MS-0008,10/9/2012 5:00:22 AM,70.830978,-158.080800,True,3,8.5,2.00,71.161000,-160.354290,117,School of Fisheries and Ocean Sciences,,,,,,,,,
300234011880350,SFOS-MS-0008,10/9/2012 4:30:09 AM,70.830983,-158.097881,True,3,8.5,1.60,70.459480,-154.215390,172,School of Fisheries and Ocean Sciences,,,,,,,,,
300234011880350,SFOS-MS-0008,10/9/2012 4:00:08 AM,70.831128,-158.117064,True,3,8.5,1.55,70.505640,-158.461900,5,School of Fisheries and Ocean Sciences,,,,,,,,,
300234011880350,SFOS-MS-0008,10/9/2012 3:30:08 AM,70.832203,-158.136753,True,3,8.5,2.25,70.498580,-158.461900,3,School of Fisheries and Ocean Sciences,,,,,,,,,
300234011880350,SFOS-MS-0008,10/9/2012 3:00:08 AM,70.833755,-158.154886,True,3,8.5,2.50,71.353000,-161.276180,138,School of Fisheries and Ocean Sciences,,,,,,,,,
300234011880350,SFOS-MS-0008,10/9/2012 2:30:08 AM,70.835547,-158.173136,True,3,8.5,2.75,70.433210,-154.389190,145,School of Fisheries and Ocean Sciences,,,,,,,,,
300234011880350,SFOS-MS-0008,10/9/2012 2:00:22 AM,70.837908,-158.191094,True,3,8.5,2.90,70.501870,-158.192090,2,School of Fisheries and Ocean Sciences,,,,,,,,,
300234011880350,SFOS-MS-0008,10/9/2012 1:30:08 AM,70.840216,-158.209950,True,3,8.5,2.80,70.513210,-158.106980,3,School of Fisheries and Ocean Sciences,,,,,,,,,
300234011880350,SFOS-MS-0008,10/9/2012 1:00:08 AM,70.842866,-158.226519,True,3,8.5,2.90,70.501870,-158.192090,2,School of Fisheries and Ocean Sciences,,,,,,,,,
300234011880350,SFOS-MS-0008,10/9/2012 12:30:23 AM,70.845372,-158.243117,True,3,8.5,2.95,70.532070,-158.825800,6,School of Fisheries and Ocean Sciences,,,,,,,,,
300234011880350,SFOS-MS-0008,10/9/2012 12:00:12 AM,70.847986,-158.257358,True,3,8.5,2.95,70.501870,-158.192090,2,School of Fisheries and Ocean Sciences,,,,,,,,,
300234011880350,SFOS-MS-0008,10/8/2012 11:30:08 PM,70.850764,-158.272497,True,3,8.5,3.00,70.494340,-158.131300,2,School of Fisheries and Ocean Sciences,,,,,,,,,
300234011880350,SFOS-MS-0008,10/8/2012 11:00:20 PM,70.853361,-158.286486,True,3,8.5,3.05,70.494800,-158.192090,8,School of Fisheries and Ocean Sciences,,,,,,,,,
300234011880350,SFOS-MS-0008,10/8/2012 10:30:08 PM,70.855778,-158.301230,True,3,8.5,3.05,70.501870,-158.192090,3,School of Fisheries and Ocean Sciences,,,,,,,,,
300234011880350,SFOS-MS-0008,10/8/2012 10:00:08 PM,70.858130,-158.314803,True,3,8.5,3.10,70.426950,-160.527340,119,School of Fisheries and Ocean Sciences,,,,,,,,,
300234011880350,SFOS-MS-0008,10/8/2012 9:30:22 PM,70.860964,-158.327419,True,3,8.5,3.10,70.520740,-158.167860,3,School of Fisheries and Ocean Sciences,,,,,,,,,
300234011880350,SFOS-MS-0008,10/8/2012 9:00:13 PM,70.864028,-158.340253,True,3,8.5,3.40,70.520740,-158.167860,1,School of Fisheries and Ocean Sciences,,,,,,,,,
300234011880350,SFOS-MS-0008,10/8/2012 8:30:10 PM,70.867514,-158.350933,True,3,8.5,3.55,70.528250,-158.228830,3,School of Fisheries and Ocean Sciences,,,,,,,,,
300234011880350,SFOS-MS-0008,10/8/2012 8:00:08 PM,70.871036,-158.362592,True,3,8.5,3.70,70.520740,-158.167860,2,School of Fisheries and Ocean Sciences,,,,,,,,,
300234011880350,SFOS-MS-0008,10/8/2012 7:30:20 PM,70.873997,-158.373880,True,3,8.5,3.75,70.509350,-158.252960,3,School of Fisheries and Ocean Sciences,,,,,,,,,
300234011880350,SFOS-MS-0008,10/8/2012 7:00:08 PM,70.877141,-158.385908,True,3,8.5,3.80,70.547140,-158.204600,6,School of Fisheries and Ocean Sciences,,,,,,,,,
300234011880350,SFOS-MS-0008,10/8/2012 6:30:08 PM,70.880616,-158.396061,True,3,8.5,3.85,70.516810,-158.313920,3,School of Fisheries and Ocean Sciences,,,,,,,,,
300234011880350,SFOS-MS-0008,10/8/2012 6:00:40 PM,70.884503,-158.406511,True,3,8.5,3.95,70.535720,-158.289880,5,School of Fisheries and Ocean Sciences,,,,,,,,,
300234011880350,SFOS-MS-0008,10/8/2012 5:30:08 PM,70.888980,-158.418739,True,3,8.5,4.00,70.597710,-156.203470,152,School of Fisheries and Ocean Sciences,,,,,,,,,
300234011880350,SFOS-MS-0008,10/8/2012 5:00:08 PM,70.893080,-158.431055,True,3,8.5,4.05,70.535720,-158.289880,2,School of Fisheries and Ocean Sciences,,,,,,,,,
300234011880350,SFOS-MS-0008,10/8/2012 4:30:08 PM,70.897789,-158.442386,True,3,8.5,4.15,70.535720,-158.289880,1,School of Fisheries and Ocean Sciences,,,,,,,,,
300234011880350,SFOS-MS-0008,10/8/2012 4:00:40 PM,70.902366,-158.453550,True,3,8.5,4.20,70.535720,-158.289880,3,School of Fisheries and Ocean Sciences,,,,,,,,,
300234011880350,SFOS-MS-0008,10/8/2012 3:30:09 PM,70.907103,-158.464936,True,3,8.5,4.25,70.561660,-158.265750,7,School of Fisheries and Ocean Sciences,,,,,,,,,
300234011880350,SFOS-MS-0008,10/8/2012 3:00:08 PM,70.912122,-158.476828,True,3,8.5,4.30,70.543160,-158.351010,3,School of Fisheries and Ocean Sciences,,,,,,,,,
300234011880350,SFOS-MS-0008,10/8/2012 2:30:09 PM,70.917191,-158.488917,True,3,8.5,4.30,70.543160,-158.351010,2,School of Fisheries and Ocean Sciences,,,,,,,,,
300234011880350,SFOS-MS-0008,10/8/2012 2:00:08 PM,70.922666,-158.500017,True,3,8.5,4.30,70.543160,-158.351010,2,School of Fisheries and Ocean Sciences,,,,,,,,,
300234011880350,SFOS-MS-0008,10/8/2012 1:30:07 PM,70.928586,-158.512622,True,3,8.5,4.25,70.535720,-158.289880,2,School of Fisheries and Ocean Sciences,,,,,,,,,
300234011880350,SFOS-MS-0008,10/8/2012 1:00:22 PM,70.934747,-158.527680,True,3,8.5,4.25,70.554630,-158.265750,2,School of Fisheries and Ocean Sciences,,,,,,,,,
300234011880350,SFOS-MS-0008,10/8/2012 12:30:09 PM,70.940975,-158.542475,True,3,8.5,4.25,70.543160,-158.351010,2,School of Fisheries and Ocean Sciences,,,,,,,,,
300234011880350,SFOS-MS-0008,10/8/2012 12:00:08 PM,70.947153,-158.558833,True,3,8.5,4.30,70.543160,-158.351010,12,School of Fisheries and Ocean Sciences,,,,,,,,,
300234011880350,SFOS-MS-0008,10/8/2012 11:30:07 AM,70.953314,-158.575111,True,3,8.5,4.30,70.562080,-158.326980,3,School of Fisheries and Ocean Sciences,,,,,,,,,
300234011880350,SFOS-MS-0008,10/8/2012 11:00:22 AM,70.959680,-158.591103,True,3,8.5,4.25,70.477000,-154.333230,162,School of Fisheries and Ocean Sciences,,,,,,,,,
300234011880350,SFOS-MS-0008,10/8/2012 10:30:08 AM,70.965591,-158.607950,True,3,8.5,4.25,71.144000,-158.340140,11,School of Fisheries and Ocean Sciences,,,,,,,,,
300234011880350,SFOS-MS-0008,10/8/2012 10:00:22 AM,70.971111,-158.626264,True,3,8.5,4.25,70.576530,-158.388290,5,School of Fisheries and Ocean Sciences,,,,,,,,,
300234011880350,SFOS-MS-0008,10/8/2012 9:30:07 AM,70.976414,-158.647686,True,3,8.5,4.25,70.583910,-158.449690,2,School of Fisheries and Ocean Sciences,,,,,,,,,
300234011880350,SFOS-MS-0008,10/8/2012 9:00:08 AM,70.980905,-158.672391,True,3,8.5,4.25,70.480300,-155.376910,132,School of Fisheries and Ocean Sciences,,,,,,,,,
300234011880350,SFOS-MS-0008,10/8/2012 8:30:07 AM,70.984455,-158.697878,True,3,8.5,4.30,70.583910,-158.449690,3,School of Fisheries and Ocean Sciences,,,,,,,,,
300234011880350,SFOS-MS-0008,10/8/2012 8:00:10 AM,70.986650,-158.724244,True,3,8.5,4.30,70.576530,-158.388290,4,School of Fisheries and Ocean Sciences,,,,,,,,,
300234011880350,SFOS-MS-0008,10/8/2012 7:30:40 AM,70.988291,-158.751314,True,3,8.5,4.30,71.248490,-164.310810,221,School of Fisheries and Ocean Sciences,,,,,,,,,
300234011880350,SFOS-MS-0008,10/8/2012 7:00:22 AM,70.989372,-158.780366,True,3,8.5,4.35,70.591270,-158.511180,2,School of Fisheries and Ocean Sciences,,,,,,,,,
300234011880350,SFOS-MS-0008,10/8/2012 6:30:08 AM,70.989689,-158.809330,True,3,8.5,4.40,71.286000,-158.425750,2,School of Fisheries and Ocean Sciences,,,,,,,,,
300234011880350,SFOS-MS-0008,10/8/2012 6:00:22 AM,70.990428,-158.836722,True,3,8.5,4.40,70.598590,-158.572750,2,School of Fisheries and Ocean Sciences,,,,,,,,,
300234011880350,SFOS-MS-0008,10/8/2012 5:30:08 AM,70.990689,-158.866430,True,3,8.5,4.35,70.583910,-158.449690,3,School of Fisheries and Ocean Sciences,,,,,,,,,
300234011880350,SFOS-MS-0008,10/8/2012 5:00:22 AM,70.991189,-158.895866,True,3,8.5,4.35,70.569110,-158.326980,66,School of Fisheries and Ocean Sciences,,,,,,,,,
300234011880350,SFOS-MS-0008,10/8/2012 4:30:08 AM,70.991655,-158.927133,True,3,8.5,4.40,70.591270,-158.511180,5,School of Fisheries and Ocean Sciences,,,,,,,,,
300234011880350,SFOS-MS-0008,10/8/2012 4:00:08 AM,70.992261,-158.959272,True,3,8.5,4.40,70.586880,-159.579800,3,School of Fisheries and Ocean Sciences,,,,,,,,,
300234011880350,SFOS-MS-0008,10/8/2012 3:30:08 AM,70.992761,-158.991161,True,3,8.5,4.40,70.598590,-158.572750,5,School of Fisheries and Ocean Sciences,,,,,,,,,
300234011880350,SFOS-MS-0008,10/8/2012 3:00:08 AM,70.993003,-159.023516,True,3,8.5,4.45,70.586880,-159.579800,2,School of Fisheries and Ocean Sciences,,,,,,,,,
300234011880350,SFOS-MS-0008,10/8/2012 2:30:20 AM,70.993844,-159.055289,True,3,8.5,4.45,70.598590,-158.572750,4,School of Fisheries and Ocean Sciences,,,,,,,,,
300234011880350,SFOS-MS-0008,10/8/2012 2:00:22 AM,70.995022,-159.088797,True,3,8.5,4.45,70.594110,-159.119620,2,School of Fisheries and Ocean Sciences,,,,,,,,,
300234011880350,SFOS-MS-0008,10/8/2012 1:30:22 AM,70.996114,-159.124575,True,3,8.5,4.55,70.586880,-159.579800,4,School of Fisheries and Ocean Sciences,,,,,,,,,
300234011880350,SFOS-MS-0008,10/8/2012 1:00:09 AM,70.997753,-159.161750,True,3,8.5,4.60,71.587000,-159.344000,3,School of Fisheries and Ocean Sciences,,,,,,,,,
300234011880350,SFOS-MS-0008,10/8/2012 12:30:08 AM,70.999358,-159.199822,True,3,8.5,4.65,70.559670,-155.415330,155,School of Fisheries and Ocean Sciences,,,,,,,,,
300234011880350,SFOS-MS-0008,10/8/2012 12:00:08 AM,71.000453,-159.239144,True,3,8.5,4.65,71.131300,-159.961500,7,School of Fisheries and Ocean Sciences,,,,,,,,,
300234011880350,SFOS-MS-0008,10/7/2012 11:30:08 PM,71.000194,-159.282480,True,3,8.5,4.65,70.594110,-159.119620,2,School of Fisheries and Ocean Sciences,,,,,,,,,
300234011880350,SFOS-MS-0008,10/7/2012 11:00:08 PM,70.999466,-159.326947,True,3,8.5,4.65,71.849000,-159.243170,3,School of Fisheries and Ocean Sciences,,,,,,,,,
300234011880350,SFOS-MS-0008,10/7/2012 10:30:08 PM,70.998305,-159.372258,True,3,8.5,4.70,70.589450,-159.266370,14,School of Fisheries and Ocean Sciences,,,,,,,,,
300234011880350,SFOS-MS-0008,10/7/2012 10:00:22 PM,70.997480,-159.416677,True,3,8.5,4.70,71.442600,-158.168370,115,School of Fisheries and Ocean Sciences,,,,,,,,,
300234011880350,SFOS-MS-0008,10/7/2012 9:30:08 PM,70.995489,-159.464466,True,3,8.5,4.70,70.570410,-159.289490,6,School of Fisheries and Ocean Sciences,,,,,,,,,
300234011880350,SFOS-MS-0008,10/7/2012 9:00:08 PM,70.992383,-159.512063,True,3,8.5,4.70,71.156300,-159.305060,5,School of Fisheries and Ocean Sciences,,,,,,,,,
300234011880350,SFOS-MS-0008,10/7/2012 8:30:07 PM,70.988780,-159.558758,True,3,8.5,4.70,70.577520,-159.351190,4,School of Fisheries and Ocean Sciences,,,,,,,,,
300234011880350,SFOS-MS-0008,10/7/2012 8:00:07 PM,70.985200,-159.604647,True,3,8.5,4.70,70.584590,-159.412980,4,School of Fisheries and Ocean Sciences,,,,,,,,,
300234011880350,SFOS-MS-0008,10/7/2012 7:30:07 PM,70.981180,-159.649708,True,3,8.5,4.70,71.293230,-152.123100,295,School of Fisheries and Ocean Sciences,,,,,,,,,
300234011880350,SFOS-MS-0008,10/7/2012 7:00:07 PM,70.976697,-159.695908,True,3,8.5,4.70,70.565530,-159.435830,2,School of Fisheries and Ocean Sciences,,,,,,,,,
300234011880350,SFOS-MS-0008,10/7/2012 6:30:39 PM,70.971114,-159.741338,True,3,8.5,4.70,70.572550,-159.497600,1,School of Fisheries and Ocean Sciences,,,,,,,,,
300234011880350,SFOS-MS-0008,10/7/2012 6:00:22 PM,70.964705,-159.787047,True,3,8.5,4.70,70.565530,-159.435830,3,School of Fisheries and Ocean Sciences,,,,,,,,,
300234011880350,SFOS-MS-0008,10/7/2012 5:30:07 PM,70.958730,-159.832955,True,3,8.5,4.65,70.572550,-159.497600,3,School of Fisheries and Ocean Sciences,,,,,,,,,
300234011880350,SFOS-MS-0008,10/7/2012 5:00:08 PM,70.952994,-159.879952,True,3,8.5,4.60,72.317900,-148.130150,437,School of Fisheries and Ocean Sciences,,,,,,,,,
300234011880350,SFOS-MS-0008,10/7/2012 4:30:08 PM,70.947253,-159.928605,True,3,9.0,4.65,70.553420,-159.582030,2,School of Fisheries and Ocean Sciences,,,,,,,,,
300234011880350,SFOS-MS-0008,10/7/2012 4:00:08 PM,70.941178,-159.976491,True,3,9.0,4.65,70.579550,-159.559460,2,School of Fisheries and Ocean Sciences,,,,,,,,,
300234011880350,SFOS-MS-0008,10/7/2012 3:30:08 PM,70.934883,-160.024335,True,3,9.0,4.60,70.534320,-160.452000,2,School of Fisheries and Ocean Sciences,,,,,,,,,
300234011880350,SFOS-MS-0008,10/7/2012 3:00:39 PM,70.928239,-160.068405,True,3,9.0,4.60,70.541250,-160.662700,3,School of Fisheries and Ocean Sciences,,,,,,,,,
300234011880350,SFOS-MS-0008,10/7/2012 2:30:09 PM,70.921239,-160.111083,True,3,9.0,4.60,70.567400,-160.438700,4,School of Fisheries and Ocean Sciences,,,,,,,,,
300234011880350,SFOS-MS-0008,10/7/2012 2:00:08 PM,70.914275,-160.152216,True,3,9.0,4.60,70.541250,-160.662700,3,School of Fisheries and Ocean Sciences,,,,,,,,,
300234011880350,SFOS-MS-0008,10/7/2012 1:30:08 PM,70.907533,-160.190799,True,3,9.0,4.65,70.541250,-160.662700,3,School of Fisheries and Ocean Sciences,,,,,,,,,
300234011880350,SFOS-MS-0008,10/7/2012 1:00:37 PM,70.901539,-160.229177,True,3,9.0,4.65,70.529020,-160.150310,4,School of Fisheries and Ocean Sciences,,,,,,,,,
300234011880350,SFOS-MS-0008,10/7/2012 12:30:09 PM,70.895036,-160.267980,True,3,9.0,4.65,70.509900,-160.172450,4,School of Fisheries and Ocean Sciences,,,,,,,,,
300234011880350,SFOS-MS-0008,10/7/2012 12:00:39 PM,70.888489,-160.305613,True,3,9.0,4.65,70.509900,-160.172450,3,School of Fisheries and Ocean Sciences,,,,,,,,,
300234011880350,SFOS-MS-0008,10/7/2012 11:30:10 AM,70.881941,-160.342169,True,3,9.0,4.60,70.509900,-160.172450,1759,School of Fisheries and Ocean Sciences,,,,,,,,,
300234011880350,SFOS-MS-0008,10/7/2012 11:00:08 AM,70.875389,-160.374763,True,3,9.0,4.65,70.535870,-160.212120,4,School of Fisheries and Ocean Sciences,,,,,,,,,
300234011880350,SFOS-MS-0008,10/7/2012 10:30:08 AM,70.869091,-160.406330,True,3,9.0,4.60,70.523530,-160.295950,2,School of Fisheries and Ocean Sciences,,,,,,,,,
300234011880350,SFOS-MS-0008,10/7/2012 10:00:21 AM,70.863047,-160.436396,True,3,9.0,4.65,70.516730,-160.234160,4,School of Fisheries and Ocean Sciences,,,,,,,,,
300234011880350,SFOS-MS-0008,10/7/2012 9:30:09 AM,70.857153,-160.465608,True,3,9.0,4.65,70.582820,-162.218490,95,School of Fisheries and Ocean Sciences,,,,,,,,,
300234011880350,SFOS-MS-0008,10/7/2012 9:00:21 AM,70.851530,-160.494158,True,3,9.0,4.65,70.504380,-160.317810,2,School of Fisheries and Ocean Sciences,,,,,,,,,
300234011880350,SFOS-MS-0008,10/7/2012 8:30:12 AM,70.846455,-160.522841,True,3,9.0,4.65,70.516730,-160.234160,2,School of Fisheries and Ocean Sciences,,,,,,,,,
300234011880350,SFOS-MS-0008,10/7/2012 8:00:22 AM,70.841725,-160.552385,True,3,9.0,4.65,70.511130,-160.379590,1,School of Fisheries and Ocean Sciences,,,,,,,,,
300234011880350,SFOS-MS-0008,10/7/2012 7:30:11 AM,70.836872,-160.582291,True,3,9.0,4.70,70.484900,-160.401280,3,School of Fisheries and Ocean Sciences,,,,,,,,,
300234011880350,SFOS-MS-0008,10/7/2012 7:00:09 AM,70.831994,-160.612741,True,3,9.0,4.65,70.365190,-155.451540,194,School of Fisheries and Ocean Sciences,,,,,,,,,
300234011880350,SFOS-MS-0008,10/7/2012 6:30:22 AM,70.827825,-160.646171,True,3,9.0,4.60,70.511130,-160.379590,4,School of Fisheries and Ocean Sciences,,,,,,,,,
300234011880350,SFOS-MS-0008,10/7/2012 6:00:22 AM,70.823594,-160.683296,True,3,9.0,4.50,70.478160,-160.339600,2,School of Fisheries and Ocean Sciences,,,,,,,,,
300234011880350,SFOS-MS-0008,10/7/2012 5:30:13 AM,70.818711,-160.720810,True,3,9.0,4.45,70.484900,-160.401280,2,School of Fisheries and Ocean Sciences,,,,,,,,,
300234011880350,SFOS-MS-0008,10/7/2012 5:00:07 AM,70.813839,-160.757263,True,3,9.0,4.40,70.353630,-156.574280,169,School of Fisheries and Ocean Sciences,,,,,,,,,
300234011880350,SFOS-MS-0008,10/7/2012 4:30:22 AM,70.810055,-160.793216,True,3,9.0,4.30,70.472420,-160.484540,2,School of Fisheries and Ocean Sciences,,,,,,,,,
300234011880350,SFOS-MS-0008,10/7/2012 4:00:08 AM,70.805797,-160.828213,True,3,9.0,4.30,70.498290,-160.524860,2,School of Fisheries and Ocean Sciences,,,,,,,,,
300234011880350,SFOS-MS-0008,10/7/2012 3:30:07 AM,70.801972,-160.862244,True,3,9.0,4.30,71.995400,-166.590200,205,School of Fisheries and Ocean Sciences,,,,,,,,,
300234011880350,SFOS-MS-0008,10/7/2012 3:00:08 AM,70.798272,-160.896346,True,3,9.0,4.15,70.451600,-159.136640,87,School of Fisheries and Ocean Sciences,,,,,,,,,
300234011880350,SFOS-MS-0008,10/7/2012 2:30:08 AM,70.794678,-160.932641,True,3,9.0,4.00,70.410270,-153.144630,294,School of Fisheries and Ocean Sciences,,,,,,,,,
300234011880350,SFOS-MS-0008,10/7/2012 2:00:22 AM,70.791614,-160.970196,True,3,9.0,4.00,70.479080,-160.546280,3,School of Fisheries and Ocean Sciences,,,,,,,,,
300234011880350,SFOS-MS-0008,10/7/2012 1:30:09 AM,70.788961,-161.009916,True,3,9.0,4.00,70.466500,-161.293300,2,School of Fisheries and Ocean Sciences,,,,,,,,,
300234011880350,SFOS-MS-0008,10/7/2012 1:00:08 AM,70.786322,-161.048646,True,3,9.0,4.05,70.473080,-161.911200,3,School of Fisheries and Ocean Sciences,,,,,,,,,
300234011880350,SFOS-MS-0008,10/7/2012 12:30:09 AM,70.784111,-161.088027,True,3,9.5,4.05,70.473080,-161.911200,3,School of Fisheries and Ocean Sciences,,,,,,,,,
300234011880350,SFOS-MS-0008,10/7/2012 12:00:09 AM,70.782158,-161.129380,True,3,9.5,4.05,70.447290,-161.504900,2,School of Fisheries and Ocean Sciences,,,,,,,,,
300234011880350,SFOS-MS-0008,10/6/2012 11:30:22 PM,70.779778,-161.171380,True,3,9.5,4.05,70.466500,-161.293300,3,School of Fisheries and Ocean Sciences,,,,,,,,,
300234011880350,SFOS-MS-0008,10/6/2012 11:00:09 PM,70.777183,-161.213132,True,3,9.5,4.05,70.473080,-161.911200,4,School of Fisheries and Ocean Sciences,,,,,,,,,
300234011880350,SFOS-MS-0008,10/6/2012 10:30:08 PM,70.774497,-161.253527,True,3,9.5,4.05,70.358080,-165.232920,167,School of Fisheries and Ocean Sciences,,,,,,,,,
300234011880350,SFOS-MS-0008,10/6/2012 10:00:10 PM,70.771761,-161.291957,True,3,9.5,4.10,70.479620,-161.152980,3,School of Fisheries and Ocean Sciences,,,,,,,,,
300234011880350,SFOS-MS-0008,10/6/2012 9:30:08 PM,70.768883,-161.328941,True,3,9.5,4.10,70.486140,-161.214920,9,School of Fisheries and Ocean Sciences,,,,,,,,,
300234011880350,SFOS-MS-0008,10/6/2012 9:00:08 PM,70.766328,-161.365018,True,3,9.5,4.10,70.447640,-161.256590,2,School of Fisheries and Ocean Sciences,,,,,,,,,
300234011880350,SFOS-MS-0008,10/6/2012 8:30:22 PM,70.763683,-161.400080,True,3,9.5,4.10,70.383230,-165.546780,187,School of Fisheries and Ocean Sciences,,,,,,,,,
300234011880350,SFOS-MS-0008,10/6/2012 8:00:09 PM,70.761005,-161.432857,True,3,9.5,4.10,70.537210,-159.250990,97,School of Fisheries and Ocean Sciences,,,,,,,,,
300234011880350,SFOS-MS-0008,10/6/2012 7:30:08 PM,70.758894,-161.463904,True,3,9.5,4.10,70.466880,-161.235790,4,School of Fisheries and Ocean Sciences,,,,,,,,,
300234011880350,SFOS-MS-0008,10/6/2012 7:00:08 PM,70.756850,-161.494752,True,3,9.5,4.10,70.454090,-161.318400,3,School of Fisheries and Ocean Sciences,,,,,,,,,
300234011880350,SFOS-MS-0008,10/6/2012 6:30:21 PM,70.754244,-161.525513,True,3,9.5,4.10,70.473350,-161.297710,4,School of Fisheries and Ocean Sciences,,,,,,,,,
300234011880350,SFOS-MS-0008,10/6/2012 6:00:22 PM,70.751755,-161.556352,True,3,9.5,4.10,70.441230,-161.400820,2,School of Fisheries and Ocean Sciences,,,,,,,,,
300234011880350,SFOS-MS-0008,10/6/2012 5:30:07 PM,70.749622,-161.587604,True,3,9.5,4.15,70.460500,-161.380300,4,School of Fisheries and Ocean Sciences,,,,,,,,,
300234011880350,SFOS-MS-0008,10/6/2012 5:00:09 PM,70.747528,-161.617463,True,3,9.5,4.15,70.441230,-161.400820,2,School of Fisheries and Ocean Sciences,,,,,,,,,
300234011880350,SFOS-MS-0008,10/6/2012 4:30:22 PM,70.745444,-161.645968,True,3,9.5,4.15,70.454090,-161.318400,5,School of Fisheries and Ocean Sciences,,,,,,,,,
300234011880350,SFOS-MS-0008,10/6/2012 4:00:22 PM,70.743561,-161.673743,True,3,9.5,4.15,70.447600,-161.462690,3,School of Fisheries and Ocean Sciences,,,,,,,,,
300234011880350,SFOS-MS-0008,10/6/2012 3:30:07 PM,70.741647,-161.700991,True,3,9.5,4.15,70.441230,-161.400820,3,School of Fisheries and Ocean Sciences,,,,,,,,,
300234011880350,SFOS-MS-0008,10/6/2012 3:00:07 PM,70.739733,-161.729249,True,3,9.5,4.15,70.447600,-161.462690,6,School of Fisheries and Ocean Sciences,,,,,,,,,
300234011880350,SFOS-MS-0008,10/6/2012 2:30:07 PM,70.737403,-161.758302,True,3,9.5,4.20,70.421210,-161.483040,4,School of Fisheries and Ocean Sciences,,,,,,,,,
300234011880350,SFOS-MS-0008,10/6/2012 2:00:07 PM,70.734758,-161.787399,True,3,9.5,4.20,70.433100,-162.356520,95,School of Fisheries and Ocean Sciences,,,,,,,,,
300234011880350,SFOS-MS-0008,10/6/2012 1:30:23 PM,70.731867,-161.816574,True,3,9.5,4.20,70.447600,-161.462690,2,School of Fisheries and Ocean Sciences,,,,,,,,,
300234011880350,SFOS-MS-0008,10/6/2012 1:00:08 PM,70.728830,-161.847288,True,3,9.5,4.20,70.447600,-161.462690,3,School of Fisheries and Ocean Sciences,,,,,,,,,
300234011880350,SFOS-MS-0008,10/6/2012 12:30:08 PM,70.725483,-161.877927,True,3,9.5,4.20,70.421210,-161.483040,2,School of Fisheries and Ocean Sciences,,,,,,,,,
300234011880350,SFOS-MS-0008,10/6/2012 12:00:22 PM,70.721844,-161.906765,True,3,9.5,4.20,71.135200,-166.122560,176,School of Fisheries and Ocean Sciences,,,,,,,,,